DECAYED

RESURS P1 DEB, 60224 (Decayed)

Orbit data source: Space-Track

RESURS P1 DEB, 60224 was space debris in LEO originally from a Commonwealth of Independent States-origin launch on Tue, 25 Jun 2013 UTC launched from the Tyuratam Missile And Space Complex (TTMTR). Debris objects in space refer to the collection of defunct objects orbiting the Earth. Examples of debris include non-operational satellites, rocket bodies, and fragments generated from explosions, collisions, or faulty payload assembly.

Not visible in the next 10 days
Identifier
60224, 2013-030N
Orbit
Decayed
Country
Flag of CISCIS
Related business
Manufacturer
TSSKBP?
Mission
Decayed spacecraft
Bus & Motor
Unknown
Mass
Unknown
Launch date (UTC)
2013-06-25 (12 years ago)
Launch vehicle
Unknown
Launch site
Tyuratam Missile And Space Complex (TTMTR)
Object type
Payload
Rocket body
Debris
Shape & HBR
Unknown
Radar Cross Section
Small (<0.1 m²)

Expand to show TLE details & history
Last TLE update: 1 year ago

TLE from 1 year ago
0 RESURS P1 DEB
1 60224U 13030N   24193.63146825  .07363131  21939-5  40747-2 0  9992
2 60224  96.9932 244.1553 0015636 266.5088  93.4413 16.19184145  1436
Epoch: 2024-07-11T15:09Z
TLE epoch observation values (Epoch: 2024-07-11T15:09:18.856Z)
Latitude
-0.00006°
Longitude
86.80741°
Altitude
225.639 km
Speed
7.771 km/s
True Right ascension
16h 16m 37s
True Declination
0° 00' 00"
Sunlit
Object was in full shadow at epoch
Visualization orbit readout
Latitude
Unknown
Longitude
Unknown
Altitude
Unknown
Speed
Unknown
Apparent Right ascension
Unknown
Apparent Declination
Unknown
Sunlit
N/A
Visualization observer readout
Local Sidereal Time
00:03:10
Azimuth
Unknown
Elevation
Unknown
Doppler factor
Unknown
Orbital elements
Apogee altitude
228.9 km
Perigee altitude
208.27 km
Semi-major axis
6,596.722 km
Eccentricity
0.00156
Inclination
96.9932°
RAAN
244.1553°
Arg. of periapsis
266.5088°
True anomaly
93.62013°
Mean anomaly
93.4413°
Eccentric anomaly
93.53072°
Mean motion
4.05089 °/min
Orbital period
88.87 mins
BSTAR
0.0040747
Loading maneuver chart data...
Computing Atmospheric mass density...

Documentation

Showing up to 5 results
|